FW8140 Weather Reports


Display with metric or nautical units.
time (UTC)temp
F
wind
direction
speed
MPH
gust
MPH
rain 1hr
in
rain 24hr
in
rain mn
in
humidity
%
barometer
mb
20260505053056 65 0 0.0 0.0 0.00 0.00 0.00 94 1015.7
20260505051554 65 0 0.0 0.0 0.00 0.00 0.00 93 1015.5
20260505050104 65 0 0.0 0.0 0.00 0.00 0.00 93 1015.7
20260505041603 67 0 0.0 0.0 0.00 0.00 0.00 91 1015.9
20260505040103 67 0 0.0 0.0 0.00 0.00 0.00 90 1015.8
20260505034610 68 351 0.0 0.0 0.00 0.00 0.00 90 1015.9
20260505033100 68 0 0.0 0.0 0.00 0.00 0.00 89 1016.1
20260505031552 68 351 0.0 0.0 0.00 0.00 0.00 88 1016.0
20260505024609 69 0 0.0 0.0 0.00 0.00 0.00 87 1016.2
20260505023102 69 350 0.0 0.0 0.00 0.00 0.00 86 1016.0
20260505021600 70 0 0.0 1.0 0.00 0.00 0.00 85 1016.0
20260505020149 70 0 0.0 1.0 0.00 0.00 0.00 84 1015.9
20260505014553 71 0 0.0 2.0 0.00 0.00 0.00 84 1015.8
20260505013053 71 350 0.0 1.0 0.00 0.00 0.00 83 1015.7
20260505011559 72 274 0.0 2.0 0.00 0.00 0.00 82 1015.5
20260505010109 72 352 0.0 2.0 0.00 0.00 0.00 81 1015.5
20260505004605 73 0 0.0 4.0 0.00 0.00 0.00 80 1015.5
20260505003058 74 0 0.0 2.0 0.00 0.00 0.00 79 1015.1
20260505001550 74 304 0.0 4.0 0.00 0.00 0.00 78 1014.7
20260505000107 75 23 0.0 3.0 0.00 0.00 0.00 77 1014.8
20260504234553 76 9 0.0 2.0 0.00 0.00 0.00 76 1014.6
20260504233053 77 360 0.0 3.0 0.00 0.00 0.00 74 1014.3
20260504231619 78 0 0.0 2.0 0.00 0.00 0.00 72 1014.0
20260504230051 78 32 1.0 5.0 0.00 0.00 0.00 71 1014.2
20260504224550 79 11 1.0 4.0 0.00 0.00 0.00 70 1014.2
20260504223057 80 359 1.0 8.0 0.00 0.00 0.00 68 1014.1
20260504221631 81 279 1.0 4.0 0.00 0.00 0.00 67 1014.0
20260504220055 81 297 2.0 5.0 0.00 0.00 0.00 67 1014.0
20260504214555 81 248 1.0 5.0 0.00 0.00 0.00 66 1014.0
20260504213100 83 19 1.0 5.0 0.00 0.00 0.00 65 1013.8
20260504211550 83 34 1.0 5.0 0.00 0.00 0.00 64 1014.0
20260504210053 83 335 0.0 7.0 0.00 0.00 0.00 63 1014.1
20260504204555 85 341 2.0 7.0 0.00 0.00 0.00 61 1014.0
20260504203053 85 11 2.0 5.0 0.00 0.00 0.00 62 1013.9
20260504201551 85 1 1.0 4.0 0.00 0.00 0.00 61 1014.2
20260504200052 85 6 1.0 5.0 0.00 0.00 0.00 61 1014.4
20260504194556 85 12 1.0 6.0 0.00 0.00 0.00 61 1014.3
20260504193058 87 356 1.0 6.0 0.00 0.00 0.00 57 1014.5
20260504191623 89 322 1.0 5.0 0.00 0.00 0.00 55 1014.9
20260504184603 88 18 2.0 6.0 0.00 0.00 0.00 58 1015.3
20260504183054 87 65 2.0 6.0 0.00 0.00 0.00 59 1015.5
20260504181604 86 232 2.0 10.0 0.00 0.00 0.00 59 1015.6
20260504180053 85 45 1.0 9.0 0.00 0.00 0.00 63 1015.8
20260504174556 84 345 2.0 8.0 0.00 0.00 0.00 61 1015.9
20260504173055 84 14 1.0 6.0 0.00 0.00 0.00 64 1016.1
20260504171551 85 285 1.0 8.0 0.00 0.00 0.00 64 1016.3
20260504140105 76 134 2.0 7.0 0.00 0.00 0.00 74 1016.9
20260504081550 65 0 0.0 3.0 0.00 0.01 0.00 92 1015.7